World > North America > United States > Missouri
Hourly Weather in Bernie, MissouriBernie, Missouri Hourly Weather

Bernie, MO Hourly Weather

Hourly Weather Bernie, MissouriHourly Weather in Bernie, MO
Lat: 36.67N, Lon: 89.97W  ICAO: KPOF
Web Search

Our weather pages are very print friendly and they make great conversation starters.

Feedback

Bernie Hourly Weather

36 Hour Weather Scroll   °F Click to change Bernie hourly weather to Imperial units.Click to change Bernie hourly weather to Metric units. °C
Currently, Clear, temperature is 64°F18°C, dew point 45°F7°C, humidity 50%. Wind direction is SW at 10 mph16 km/h with visibility of N/A mi0 km. Barometric pressure is 30.03 in1017 mb.

Dec 02
NOON

Dec 02
1:00 PM

Dec 02
2:00 PM

Dec 02
3:00 PM

Dec 02
4:00 PM

Dec 02
5:00 PM

Dec 02
6:00 PM

Dec 02
7:00 PM

Dec 02
8:00 PM

Dec 02
9:00 PM

Dec 02
10:00 PM

Dec 02
11:00 PM

Dec 03
MIDNIGHT

Dec 03
1:00 AM

Dec 03
2:00 AM

Dec 03
3:00 AM

Dec 03
4:00 AM

Dec 03
5:00 AM

Dec 03
6:00 AM

Dec 03
7:00 AM

Dec 03
8:00 AM

Dec 03
9:00 AM

Dec 03
10:00 AM

Dec 03
11:00 AM

Dec 03
NOON

Dec 03
1:00 PM

Dec 03
2:00 PM

Dec 03
3:00 PM

Dec 03
4:00 PM

Dec 03
5:00 PM

Dec 03
6:00 PM

Dec 03
7:00 PM

Dec 03
8:00 PM

Dec 03
9:00 PM

Dec 03
10:00 PM

Dec 03
11:00 PM
Clear Clear Clear Clear Clear Clear Clear Clear Clear Clear Clear Clear Clear Clear Clear Clear Clear Clear Clear Clear Clear Clear Clear Clear Clear Clear Clear Clear Clear Clear Clear Clear Mostly Clear Mostly Clear Mostly Clear Mostly Cloudy
Clear Clear Clear Clear Clear Clear Clear Clear Clear Clear Clear Clear Clear Clear Clear Clear Clear Clear Clear Clear Clear Clear Clear Clear Clear Clear Clear Clear Clear Clear Clear Clear Mostly Clear Mostly Clear Mostly Clear Mostly Cloudy
69°F21°C 70°F21°C 71°F22°C 72°F22°C 69°F21°C 66°F19°C 63°F17°C 60°F16°C 58°F14°C 55°F13°C 54°F12°C 53°F12°C 52°F11°C 51°F11°C 51°F11°C 50°F10°C 49°F9°C 49°F9°C 48°F9°C 51°F11°C 54°F12°C 57°F14°C 61°F16°C 64°F18°C 68°F20°C 69°F21°C 70°F21°C 71°F22°C 69°F21°C 66°F19°C 64°F18°C 62°F17°C 60°F16°C 58°F14°C 57°F14°C 56°F13°C
- - - - - - - - - - - - - - - - - - - - - - - - - - - - - - - - - - - -
0% 0% 0% 0% 0% 0% 0% 1% 1% 1% 1% 1% 1% 1% 1% 1% 1% 1% 1% 2% 2% 2% 2% 2% 2% 0% 0% 0% 0% 0% 0% 0% 0% 0% 0% 0%
44°F7°C 43°F6°C 43°F6°C 42°F6°C 44°F7°C 45°F7°C 47°F8°C 47°F8°C 48°F9°C 48°F9°C 48°F9°C 47°F8°C 47°F8°C 47°F8°C 46°F8°C 46°F8°C 45°F7°C 45°F7°C 44°F7°C 45°F7°C 46°F8°C 47°F8°C 47°F8°C 48°F9°C 48°F9°C 49°F9°C 49°F9°C 50°F10°C 51°F11°C 52°F11°C 53°F12°C 53°F12°C 53°F12°C 53°F12°C 52°F11°C 50°F10°C
41% 38% 36% 34% 41% 47% 56% 62% 69% 77% 80% 80% 83% 86% 83% 86% 86% 86% 86% 80% 74% 69% 60% 56% 49% 49% 47% 47% 53% 61% 67% 72% 78% 83% 83% 80%
SSW SSW SW SW SW SW SW SW SW SW SSE E N ENE SSE SW SW SW SSE SSE SW SW SW SW SW SSE SSE S S SSE SSE SW SW SW SSW W
10 mph 10 mph 8 mph 8 mph 8 mph 3 mph 3 mph 3 mph 2 mph 2 mph 2 mph 0 mph 0 mph 0 mph 1 mph 1 mph 1 mph 1 mph 1 mph 1 mph 5 mph 5 mph 5 mph 8 mph 8 mph 8 mph 7 mph 7 mph 7 mph 4 mph 4 mph 4 mph 2 mph 2 mph 2 mph 3 mph
10 mi16 km 10 mi16 km 10 mi16 km 10 mi16 km 10 mi16 km 10 mi16 km 10 mi16 km 10 mi16 km 10 mi16 km 10 mi16 km 10 mi16 km 10 mi16 km 10 mi16 km 10 mi16 km 10 mi16 km 10 mi16 km 10 mi16 km 10 mi16 km 10 mi16 km 10 mi16 km 10 mi16 km 10 mi16 km 10 mi16 km 10 mi16 km 10 mi16 km 10 mi16 km 10 mi16 km 10 mi16 km 10 mi16 km 10 mi16 km 10 mi16 km 10 mi16 km 10 mi16 km 10 mi16 km 10 mi16 km 10 mi16 km
Hour (CST)
Weather
Clouds
Temperature
Precip. Type
POP
Dewpoint
Humidity
Wind Direction
Wind Speed
Visibility
POP = Probability of Precipitation. ** Indicates missing data/values from model statistics.

24 Hour Forecast

Today - Mostly sunny. Highs in the lower 70s. Southwest winds 5 to 10 mph.
Tonight - Clear. Lows in the lower 40s. Southwest winds around 5 mph in the evening becoming calm after midnight.

48 Hour Forecast API Feed


Thu, Dec 2
Noon

Thu, Dec 2
1:00 pm

Thu, Dec 2
2:00 pm

Thu, Dec 2
3:00 pm

Thu, Dec 2
4:00 pm

Thu, Dec 2
5:00 pm

Thu, Dec 2
6:00 pm

Thu, Dec 2
7:00 pm

Thu, Dec 2
8:00 pm

Thu, Dec 2
9:00 pm

Thu, Dec 2
10:00 pm

Thu, Dec 2
11:00 pm

Fri, Dec 3
Midnight

Fri, Dec 3
1:00 am

Fri, Dec 3
2:00 am

Fri, Dec 3
3:00 am

Fri, Dec 3
4:00 am

Fri, Dec 3
5:00 am

Fri, Dec 3
6:00 am

Fri, Dec 3
7:00 am

Fri, Dec 3
8:00 am

Fri, Dec 3
9:00 am

Fri, Dec 3
10:00 am

Fri, Dec 3
11:00 am

Fri, Dec 3
Noon

Fri, Dec 3
1:00 pm

Fri, Dec 3
2:00 pm

Fri, Dec 3
3:00 pm

Fri, Dec 3
4:00 pm

Fri, Dec 3
5:00 pm

Fri, Dec 3
6:00 pm

Fri, Dec 3
7:00 pm

Fri, Dec 3
8:00 pm

Fri, Dec 3
9:00 pm

Fri, Dec 3
10:00 pm

Fri, Dec 3
11:00 pm

Sat, Dec 4
Midnight

Sat, Dec 4
1:00 am

Sat, Dec 4
2:00 am

Sat, Dec 4
3:00 am

Sat, Dec 4
4:00 am

Sat, Dec 4
5:00 am

Sat, Dec 4
6:00 am

Sat, Dec 4
7:00 am

Sat, Dec 4
8:00 am

Sat, Dec 4
9:00 am

Sat, Dec 4
10:00 am

Sat, Dec 4
11:00 am
SunnySunnySunnySunnySunnyClearClearClearClearClearClearClearClearClearClearClearClearClearClearSunnySunnySunnySunnySunnySunnyPartly CloudyPartly CloudyCloudySunnyPartly CloudyClearClearClearClearClearClearClearPartly CloudyPartly CloudyPartly CloudyPartly CloudyPartly CloudyPartly CloudySunnyPartly CloudyPartly CloudyPartly CloudyPartly Cloudy
Sunny Sunny Sunny Sunny Sunny Clear Clear Clear Clear Clear Clear Clear Clear Clear Clear Clear Clear Clear Clear Sunny Sunny Sunny Sunny Sunny Sunny Partly cloudy Partly cloudy Cloudy Sunny Partly cloudy Clear Clear Clear Clear Clear Clear Clear Partly cloudy Partly cloudy Partly cloudy Partly cloudy Partly cloudy Partly cloudy Sunny Partly cloudy Partly cloudy Partly cloudy Partly cloudy
67°F
20°C
71°F
22°C
74°F
23°C
75°F
24°C
75°F
24°C
71°F
21°C
67°F
19°C
65°F
18°C
59°F
15°C
58°F
14°C
57°F
14°C
56°F
13°C
55°F
13°C
54°F
12°C
54°F
12°C
53°F
12°C
53°F
12°C
52°F
11°C
52°F
11°C
51°F
11°C
51°F
10°C
53°F
11°C
57°F
14°C
62°F
17°C
65°F
18°C
66°F
19°C
68°F
20°C
68°F
20°C
69°F
21°C
65°F
19°C
64°F
18°C
62°F
17°C
60°F
16°C
60°F
15°C
60°F
15°C
59°F
15°C
58°F
15°C
58°F
14°C
58°F
14°C
57°F
14°C
57°F
14°C
56°F
13°C
55°F
13°C
54°F
12°C
52°F
11°C
52°F
11°C
53°F
12°C
56°F
13°C
44°F
7°C
45°F
7°C
45°F
7°C
47°F
8°C
49°F
9°C
50°F
10°C
49°F
9°C
49°F
9°C
44°F
6°C
43°F
6°C
43°F
6°C
43°F
6°C
43°F
6°C
43°F
6°C
43°F
6°C
43°F
6°C
43°F
6°C
43°F
6°C
43°F
6°C
43°F
6°C
42°F
6°C
43°F
6°C
45°F
7°C
46°F
8°C
47°F
8°C
47°F
8°C
48°F
9°C
50°F
10°C
53°F
12°C
53°F
12°C
55°F
13°C
55°F
13°C
54°F
12°C
54°F
12°C
55°F
13°C
55°F
13°C
54°F
12°C
54°F
12°C
55°F
13°C
55°F
13°C
54°F
12°C
52°F
11°C
49°F
9°C
46°F
8°C
45°F
7°C
45°F
7°C
44°F
7°C
45°F
7°C
30.03 in
1017 mb
30 in
1016 mb
30 in
1016 mb
29.97 in
1015 mb
29.97 in
1015 mb
30 in
1016 mb
30 in
1016 mb
30 in
1016 mb
30.03 in
1017 mb
30.03 in
1017 mb
30.03 in
1017 mb
30.03 in
1017 mb
30.03 in
1017 mb
30.03 in
1017 mb
30.03 in
1017 mb
30.03 in
1017 mb
30.03 in
1017 mb
30 in
1016 mb
30 in
1016 mb
30.03 in
1017 mb
30.03 in
1017 mb
30.03 in
1017 mb
30.03 in
1017 mb
30.03 in
1017 mb
30.03 in
1017 mb
29.97 in
1015 mb
29.97 in
1015 mb
29.94 in
1014 mb
29.94 in
1014 mb
29.94 in
1014 mb
29.94 in
1014 mb
29.97 in
1015 mb
29.97 in
1015 mb
29.97 in
1015 mb
30 in
1016 mb
30 in
1016 mb
30 in
1016 mb
30 in
1016 mb
30 in
1016 mb
30 in
1016 mb
30 in
1016 mb
30.03 in
1017 mb
30.03 in
1017 mb
30.06 in
1018 mb
30.09 in
1019 mb
30.12 in
1020 mb
30.15 in
1021 mb
30.15 in
1021 mb
44%39%35%37%39%48%53%55%57%58%60%62%63%65%66%67%69%70%71%72%74%71%63%56%52%49%49%53%57%65%73%77%80%82%84%85%87%88%89%90%90%87%80%76%77%77%72%67%
WSWWSWWSWWSWWSWWSWWSWWSWWSWWSWWSWWSWWWSWWSWSWSWSSWSSWSSWSWSSWSSWSWSWSWSWSSWSSWSSWSSWSSWSSWSSWSWSWSWWWNNWNNNENNENNENNENNENNENE
14 mph
22 km/h
14 mph
22 km/h
14 mph
22 km/h
13 mph
20 km/h
10 mph
16 km/h
8 mph
12 km/h
8 mph
12 km/h
7 mph
12 km/h
7 mph
11 km/h
7 mph
11 km/h
6 mph
10 km/h
6 mph
9 km/h
4 mph
6 km/h
4 mph
6 km/h
3 mph
5 km/h
4 mph
6 km/h
5 mph
8 km/h
4 mph
7 km/h
6 mph
9 km/h
6 mph
10 km/h
7 mph
11 km/h
6 mph
10 km/h
8 mph
12 km/h
9 mph
14 km/h
10 mph
16 km/h
11 mph
17 km/h
11 mph
17 km/h
9 mph
14 km/h
8 mph
12 km/h
7 mph
12 km/h
7 mph
11 km/h
6 mph
10 km/h
6 mph
9 km/h
7 mph
11 km/h
6 mph
9 km/h
6 mph
10 km/h
6 mph
9 km/h
4 mph
6 km/h
4 mph
6 km/h
3 mph
5 km/h
5 mph
9 km/h
8 mph
13 km/h
10 mph
16 km/h
11 mph
18 km/h
12 mph
19 km/h
12 mph
19 km/h
14 mph
22 km/h
13 mph
21 km/h
0%0%0%0%0%0%0%0%0%0%0%0%0%0%0%0%0%0%0%0%0%0%0%0%0%0%0%0%0%0%0%0%0%0%0%0%0%0%0%0%0%0%0%0%0%0%0%0%
6 mi
10 km
6 mi
10 km
6 mi
10 km
6 mi
10 km
6 mi
10 km
6 mi
10 km
6 mi
10 km
6 mi
10 km
6 mi
10 km
6 mi
10 km
6 mi
10 km
6 mi
10 km
6 mi
10 km
6 mi
10 km
6 mi
10 km
6 mi
10 km
6 mi
10 km
6 mi
10 km
6 mi
10 km
6 mi
10 km
6 mi
10 km
6 mi
10 km
6 mi
10 km
6 mi
10 km
6 mi
10 km
6 mi
10 km
6 mi
10 km
6 mi
10 km
6 mi
10 km
6 mi
10 km
6 mi
10 km
6 mi
10 km
6 mi
10 km
6 mi
10 km
6 mi
10 km
6 mi
10 km
6 mi
10 km
6 mi
10 km
6 mi
10 km
6 mi
10 km
6 mi
10 km
6 mi
10 km
6 mi
10 km
6 mi
10 km
6 mi
10 km
6 mi
10 km
6 mi
10 km
6 mi
10 km

Day/Time
Weather
Condition
Temperature
Dew Point
Pressure
Humidity
Wind Direction
Wind Speed
Prob Precip %
Visibility
Prob Precip % = Probability of Precipitation.